EJU5080 LIRF-EDDB

Flight info

Callsign EJU5080
Flight time 1h 40m
Altitude 36000
Route SOVAN DCT AMTEL DCT GIPUK DCT MALUG/N0442F350 DCT ERANI/N0442F360 DCT SIMBA DCT TIVDA/N0440F350 DCT ETVIS DCT NAVEK DCT GAVLI/N0440F360 T203 ATGUP ATGUP1L
Aircraft A320/M-SDE3FGHIRWY/LB1

Departure

Time 2026-05-04 13:27
Airport Rome–Fiumicino Leonardo da Vinci International Airport (LIRF)

Arrival

Time 2026-05-04 15:07
Airport Berlin Brandenburg Airport (EDDB)
Time Latitude Longitude Altitude Speed Heading
2026-05-04 12:55 41.79625 12.25942 15 ft 0 kts 294°
2026-05-04 13:17 41.79623 12.25947 15 ft 3 kts 287°
2026-05-04 13:18 41.79618 12.25965 15 ft 4 kts 300°
2026-05-04 13:18 41.79601 12.25988 16 ft 4 kts 341°
2026-05-04 13:18 41.79576 12.25992 17 ft 4 kts 12°
2026-05-04 13:18 41.79550 12.25981 17 ft 4 kts 25°
2026-05-04 13:19 41.79526 12.25964 16 ft 4 kts 28°
2026-05-04 13:19 41.79515 12.25956 16 ft 0 kts 26°
2026-05-04 13:21 41.79520 12.25959 16 ft 5 kts 26°
2026-05-04 13:21 41.79589 12.26006 15 ft 14 kts 27°
2026-05-04 13:22 41.79671 12.26057 14 ft 12 kts 21°
2026-05-04 13:22 41.79746 12.26102 15 ft 11 kts 29°
2026-05-04 13:22 41.79810 12.26155 15 ft 10 kts 24°
2026-05-04 13:22 41.79876 12.26196 14 ft 12 kts 24°
2026-05-04 13:23 41.79970 12.26255 17 ft 18 kts 25°
2026-05-04 13:23 41.80085 12.26326 15 ft 17 kts 25°
2026-05-04 13:23 41.80189 12.26390 14 ft 15 kts 25°
2026-05-04 13:23 41.80259 12.26392 15 ft 10 kts 323°
2026-05-04 13:24 41.80303 12.26296 16 ft 13 kts 295°
2026-05-04 13:24 41.80341 12.26199 15 ft 11 kts 313°
2026-05-04 13:24 41.80411 12.26159 16 ft 12 kts
2026-05-04 13:25 41.80581 12.26141 16 ft 14 kts 342°
2026-05-04 13:25 41.80659 12.26109 17 ft 11 kts 343°
2026-05-04 13:25 41.80712 12.26083 19 ft 5 kts 328°
2026-05-04 13:25 41.80713 12.26040 18 ft 5 kts 255°
2026-05-04 13:26 41.80706 12.26012 18 ft 0 kts 250°
2026-05-04 13:26 41.80699 12.25985 19 ft 15 kts 250°
2026-05-04 13:26 41.80564 12.25497 16 ft 92 kts 250°
2026-05-04 13:27 41.80271 12.24434 17 ft 149 kts 250°
2026-05-04 13:27 41.79921 12.23068 548 ft 154 kts 248°
2026-05-04 13:27 41.79590 12.21721 1284 ft 154 kts 248°
2026-05-04 13:27 41.79302 12.20261 1689 ft 177 kts 262°
2026-05-04 13:28 41.79530 12.18548 2187 ft 202 kts 296°
2026-05-04 13:28 41.80451 12.17044 2715 ft 214 kts 311°
2026-05-04 13:28 41.81460 12.15532 3360 ft 220 kts 307°
2026-05-04 13:28 41.82412 12.13909 4070 ft 223 kts 305°
2026-05-04 13:29 41.83352 12.12233 4814 ft 226 kts 304°
2026-05-04 13:29 41.84455 12.10708 5579 ft 231 kts 323°
2026-05-04 13:29 41.85953 12.09720 6015 ft 254 kts 343°
2026-05-04 13:29 41.87737 12.09035 6414 ft 279 kts 344°
2026-05-04 13:30 41.89659 12.08331 7036 ft 291 kts 344°
2026-05-04 13:30 41.91628 12.07619 7851 ft 295 kts 344°
2026-05-04 13:30 41.93617 12.06898 8701 ft 299 kts 343°
2026-05-04 13:30 41.95641 12.06205 9575 ft 302 kts 349°
2026-05-04 13:31 41.97749 12.05919 10416 ft 307 kts 355°
2026-05-04 13:31 41.99956 12.05708 10753 ft 330 kts 355°
2026-05-04 13:31 42.02335 12.05481 11001 ft 353 kts 355°
2026-05-04 13:31 42.04816 12.05241 11569 ft 362 kts 354°
2026-05-04 13:32 42.07345 12.04993 12304 ft 366 kts 354°
2026-05-04 13:32 42.09898 12.04743 13094 ft 368 kts 353°
2026-05-04 13:32 42.12462 12.04491 13865 ft 371 kts 353°
2026-05-04 13:32 42.15046 12.04237 14561 ft 374 kts 353°
2026-05-04 13:33 42.17645 12.03981 15285 ft 374 kts 352°
2026-05-04 13:33 42.20222 12.03495 15917 ft 375 kts 347°
2026-05-04 13:33 42.22803 12.02913 16602 ft 377 kts 347°
2026-05-04 13:33 42.25403 12.02325 17246 ft 381 kts 347°
2026-05-04 13:34 42.28030 12.01733 17885 ft 384 kts 347°
2026-05-04 13:34 42.30675 12.01136 18527 ft 387 kts 347°
2026-05-04 13:34 42.33306 12.00543 19070 ft 390 kts 347°
2026-05-04 13:34 42.35991 11.99935 19636 ft 393 kts 347°
2026-05-04 13:35 42.38696 11.99323 20201 ft 396 kts 347°
2026-05-04 13:35 42.44159 11.98092 21299 ft 402 kts 347°
2026-05-04 13:35 42.46941 11.97464 21844 ft 405 kts 347°
2026-05-04 13:36 42.49731 11.96832 22380 ft 408 kts 347°
2026-05-04 13:36 42.52542 11.96195 22895 ft 411 kts 347°
2026-05-04 13:36 42.55373 11.95557 23393 ft 414 kts 348°
2026-05-04 13:36 42.58225 11.94916 23854 ft 417 kts 347°
2026-05-04 13:37 42.61093 11.94272 24265 ft 419 kts 347°
2026-05-04 13:37 42.63978 11.93619 24648 ft 422 kts 347°
2026-05-04 13:37 42.66879 11.92958 25051 ft 424 kts 347°
2026-05-04 13:37 42.68806 11.92517 25311 ft 425 kts 347°
2026-05-04 13:38 42.72713 11.91617 25832 ft 427 kts 347°
2026-05-04 13:38 42.75646 11.90942 26224 ft 429 kts 347°
2026-05-04 13:38 42.78587 11.90270 26596 ft 430 kts 347°
2026-05-04 13:38 42.81544 11.89551 26992 ft 430 kts 343°
2026-05-04 13:39 42.84395 11.88340 27331 ft 429 kts 334°
2026-05-04 13:39 42.87069 11.86564 27679 ft 428 kts 328°
2026-05-04 13:39 42.89697 11.84641 28036 ft 429 kts 328°
2026-05-04 13:39 42.92332 11.82709 28387 ft 431 kts 328°
2026-05-04 13:40 42.94979 11.80765 28738 ft 433 kts 328°
2026-05-04 13:40 42.97633 11.78816 29058 ft 434 kts 328°
2026-05-04 13:40 43.00299 11.76861 29375 ft 435 kts 328°
2026-05-04 13:40 43.02963 11.74905 29693 ft 437 kts 328°
2026-05-04 13:41 43.05653 11.72924 29877 ft 442 kts 329°
2026-05-04 13:41 43.08369 11.70927 30096 ft 445 kts 329°
2026-05-04 13:41 43.11107 11.68914 30328 ft 447 kts 329°
2026-05-04 13:42 43.16580 11.64890 30908 ft 445 kts 329°
2026-05-04 13:42 43.19439 11.63241 31246 ft 448 kts 338°
2026-05-04 13:42 43.22485 11.62276 31564 ft 453 kts 348°
2026-05-04 13:42 43.25650 11.62046 31878 ft 458 kts 359°
2026-05-04 13:43 43.28822 11.62574 32161 ft 462 kts
2026-05-04 13:43 43.31977 11.63404 32442 ft 462 kts
2026-05-04 13:43 43.35129 11.64226 32738 ft 461 kts
2026-05-04 13:43 43.38276 11.65041 33038 ft 460 kts
2026-05-04 13:44 43.41421 11.65854 33339 ft 460 kts
2026-05-04 13:44 43.44568 11.66661 33662 ft 459 kts
2026-05-04 13:44 43.47703 11.67462 33982 ft 458 kts
2026-05-04 13:44 43.50828 11.68261 34283 ft 456 kts
2026-05-04 13:45 43.53901 11.69044 34573 ft 455 kts
2026-05-04 13:45 43.57016 11.69843 34847 ft 454 kts
2026-05-04 13:45 43.60116 11.70645 35120 ft 453 kts
2026-05-04 13:45 43.63219 11.71454 35383 ft 452 kts
2026-05-04 13:46 43.66310 11.72262 35594 ft 452 kts
2026-05-04 13:46 43.69400 11.73071 35820 ft 452 kts
2026-05-04 13:46 43.72486 11.73874 36032 ft 451 kts
2026-05-04 13:46 43.75573 11.74673 36098 ft 451 kts
2026-05-04 13:47 43.81738 11.76274 36127 ft 451 kts
2026-05-04 13:47 43.87903 11.77881 36111 ft 451 kts
2026-05-04 13:48 43.94072 11.79502 36108 ft 451 kts
2026-05-04 13:48 44.00240 11.81122 36111 ft 451 kts
2026-05-04 13:49 44.06417 11.82738 36102 ft 452 kts
2026-05-04 13:49 44.12595 11.84361 36102 ft 452 kts
2026-05-04 13:50 44.18774 11.85998 36099 ft 452 kts
2026-05-04 13:50 44.24910 11.87624 36104 ft 452 kts
2026-05-04 13:51 44.31091 11.89264 36076 ft 452 kts
2026-05-04 13:51 44.37277 11.90911 36080 ft 453 kts
2026-05-04 13:52 44.46570 11.93372 36078 ft 453 kts
2026-05-04 13:53 44.52767 11.95029 36072 ft 454 kts
2026-05-04 13:53 44.58969 11.96700 36084 ft 454 kts
2026-05-04 13:54 44.68276 11.99345 36064 ft 455 kts
2026-05-04 13:55 44.77593 12.02064 36072 ft 456 kts
2026-05-04 13:55 44.86926 12.04755 36067 ft 456 kts
2026-05-04 13:56 44.93106 12.06531 36059 ft 456 kts
2026-05-04 13:57 44.99056 12.08279 36064 ft 457 kts
2026-05-04 13:58 45.09057 12.11193 36059 ft 457 kts
2026-05-04 13:58 45.17945 12.13768 36060 ft 457 kts
2026-05-04 13:59 45.24181 12.15591 36060 ft 457 kts
2026-05-04 14:00 45.33530 12.18354 36060 ft 458 kts
2026-05-04 14:00 45.42771 12.21085 36087 ft 458 kts
2026-05-04 14:01 45.44298 12.21535 36091 ft 458 kts
2026-05-04 14:02 45.53372 12.24220 36097 ft 457 kts
2026-05-04 14:02 45.59605 12.26068 36064 ft 457 kts
2026-05-04 14:03 45.65794 12.27911 36061 ft 458 kts
2026-05-04 14:03 45.72072 12.29777 36059 ft 458 kts
2026-05-04 14:04 45.81385 12.32567 36065 ft 458 kts
2026-05-04 14:04 45.87634 12.34440 36074 ft 458 kts
2026-05-04 14:05 45.97000 12.37257 36088 ft 458 kts
2026-05-04 14:06 46.03243 12.39144 36090 ft 458 kts 10°
2026-05-04 14:06 46.09484 12.41030 36087 ft 458 kts
2026-05-04 14:07 46.15713 12.42914 36085 ft 458 kts 10°
2026-05-04 14:07 46.21965 12.44811 36070 ft 458 kts 10°
2026-05-04 14:08 46.28197 12.46707 36058 ft 459 kts 10°
2026-05-04 14:08 46.34446 12.48623 36060 ft 459 kts 10°
2026-05-04 14:09 46.43808 12.51499 36053 ft 458 kts
2026-05-04 14:10 46.53179 12.54360 36076 ft 459 kts
2026-05-04 14:10 46.59419 12.56274 36080 ft 459 kts 10°
2026-05-04 14:11 46.65655 12.58226 36083 ft 458 kts 10°
2026-05-04 14:11 46.74979 12.61164 36075 ft 459 kts 11°
2026-05-04 14:12 46.81195 12.63288 36062 ft 459 kts 11°
2026-05-04 14:13 46.90523 12.66536 36048 ft 459 kts 11°
2026-05-04 14:13 46.96742 12.68665 36027 ft 460 kts 11°
2026-05-04 14:14 47.02972 12.70788 36018 ft 460 kts 11°
2026-05-04 14:14 47.12270 12.73977 36007 ft 459 kts 11°
2026-05-04 14:15 47.24746 12.78294 35993 ft 459 kts 11°
2026-05-04 14:16 47.34042 12.81523 35971 ft 459 kts 11°
2026-05-04 14:17 47.43378 12.84763 35956 ft 459 kts 11°
2026-05-04 14:18 47.52708 12.88028 35949 ft 459 kts 11°
2026-05-04 14:19 47.65143 12.92393 35935 ft 459 kts 11°
2026-05-04 14:19 47.71349 12.94575 35946 ft 459 kts 11°
2026-05-04 14:20 47.77651 12.95832 35938 ft 456 kts
2026-05-04 14:20 47.83979 12.96623 35941 ft 457 kts
2026-05-04 14:21 47.93437 12.97818 35943 ft 457 kts
2026-05-04 14:21 47.99813 12.98615 35941 ft 457 kts
2026-05-04 14:22 48.06148 12.99414 35942 ft 457 kts
2026-05-04 14:22 48.12446 13.00223 35938 ft 457 kts
2026-05-04 14:23 48.21955 13.01318 35935 ft 455 kts 356°
2026-05-04 14:24 48.28212 13.00059 35937 ft 450 kts 346°
2026-05-04 14:24 48.34315 12.98262 35957 ft 450 kts 346°
2026-05-04 14:25 48.40476 12.96479 35946 ft 451 kts 346°
2026-05-04 14:25 48.49704 12.93781 35943 ft 451 kts 346°
2026-05-04 14:26 48.55864 12.91969 35945 ft 451 kts 346°
2026-05-04 14:26 48.61909 12.90184 35953 ft 450 kts 345°
2026-05-04 14:27 48.68063 12.88375 35957 ft 450 kts 345°
2026-05-04 14:27 48.74204 12.86557 35957 ft 450 kts 345°
2026-05-04 14:28 48.80347 12.84725 35954 ft 450 kts 345°
2026-05-04 14:28 48.86482 12.82892 35966 ft 449 kts 345°
2026-05-04 14:29 48.98753 12.79222 35962 ft 449 kts 345°
2026-05-04 14:30 49.04880 12.77377 35974 ft 449 kts 345°
2026-05-04 14:31 49.14080 12.74604 35977 ft 449 kts 345°
2026-05-04 14:32 49.26252 12.70942 35974 ft 449 kts 345°
2026-05-04 14:32 49.32381 12.69075 35982 ft 449 kts 345°
2026-05-04 14:33 49.38508 12.67257 35977 ft 450 kts 349°
2026-05-04 14:33 49.44793 12.67560 35971 ft 458 kts
2026-05-04 14:34 49.50806 12.70968 35975 ft 464 kts 22°
2026-05-04 14:34 49.56625 12.75249 35972 ft 464 kts 22°
2026-05-04 14:35 49.62448 12.79540 35969 ft 464 kts 22°
2026-05-04 14:35 49.68548 12.82479 35966 ft 457 kts
2026-05-04 14:36 49.74824 12.83914 35969 ft 456 kts
2026-05-04 14:36 49.81111 12.85350 35967 ft 456 kts
2026-05-04 14:37 49.87393 12.86797 35965 ft 457 kts
2026-05-04 14:37 49.93675 12.88260 35986 ft 457 kts
2026-05-04 14:38 49.99970 12.89726 35991 ft 457 kts
2026-05-04 14:38 50.06260 12.91189 35988 ft 457 kts
2026-05-04 14:39 50.12561 12.92658 35992 ft 458 kts
2026-05-04 14:39 50.18866 12.94131 36016 ft 458 kts
2026-05-04 14:40 50.28295 12.96692 35992 ft 462 kts 14°
2026-05-04 14:40 50.34208 13.00773 35984 ft 467 kts 24°
2026-05-04 14:41 50.40005 13.05382 35974 ft 467 kts 24°
2026-05-04 14:42 50.51607 13.14611 35977 ft 468 kts 24°
2026-05-04 14:42 50.57407 13.19247 35982 ft 468 kts 24°
2026-05-04 14:43 50.63190 13.23914 35988 ft 468 kts 24°
2026-05-04 14:43 50.68997 13.28599 35972 ft 468 kts 24°
2026-05-04 14:44 50.74782 13.33263 35561 ft 466 kts 24°
2026-05-04 14:44 50.77669 13.35599 34796 ft 467 kts 24°
2026-05-04 14:44 50.80522 13.37914 34073 ft 468 kts 24°
2026-05-04 14:45 50.83422 13.40272 33172 ft 470 kts 24°
2026-05-04 14:45 50.86340 13.42652 32239 ft 472 kts 24°
2026-05-04 14:45 50.89265 13.45040 31313 ft 474 kts 24°
2026-05-04 14:45 50.92237 13.47292 30489 ft 472 kts 18°
2026-05-04 14:46 50.95325 13.48891 29829 ft 463 kts 10°
2026-05-04 14:46 50.98462 13.49846 29104 ft 457 kts
2026-05-04 14:46 51.01586 13.50677 28417 ft 452 kts
2026-05-04 14:46 51.04672 13.51506 27780 ft 447 kts
2026-05-04 14:47 51.07724 13.52336 27160 ft 443 kts
2026-05-04 14:47 51.10745 13.53162 26543 ft 439 kts
2026-05-04 14:47 51.13740 13.53976 25933 ft 435 kts
2026-05-04 14:47 51.16716 13.54781 25340 ft 431 kts
2026-05-04 14:48 51.18664 13.55307 24956 ft 429 kts
2026-05-04 14:48 51.21596 13.56096 24385 ft 425 kts
2026-05-04 14:48 51.24501 13.56880 23832 ft 422 kts
2026-05-04 14:48 51.27391 13.57660 23263 ft 419 kts
2026-05-04 14:49 51.30249 13.58432 22676 ft 415 kts
2026-05-04 14:49 51.33084 13.59203 22102 ft 412 kts
2026-05-04 14:49 51.35897 13.59972 21562 ft 409 kts
2026-05-04 14:49 51.38691 13.60735 21032 ft 406 kts
2026-05-04 14:50 51.41463 13.61495 20516 ft 403 kts
2026-05-04 14:50 51.44216 13.62253 20008 ft 400 kts
2026-05-04 14:50 51.46956 13.63009 19511 ft 397 kts
2026-05-04 14:50 51.49672 13.63755 19018 ft 395 kts
2026-05-04 14:51 51.52369 13.64498 18543 ft 392 kts
2026-05-04 14:51 51.55048 13.65237 18033 ft 390 kts
2026-05-04 14:51 51.57709 13.65997 17497 ft 388 kts
2026-05-04 14:51 51.60347 13.66873 16965 ft 385 kts
2026-05-04 14:52 51.62958 13.67833 16462 ft 383 kts 11°
2026-05-04 14:52 51.65542 13.68824 15963 ft 381 kts 11°
2026-05-04 14:52 51.68112 13.69815 15478 ft 378 kts 11°
2026-05-04 14:52 51.70664 13.70786 14998 ft 376 kts 10°
2026-05-04 14:53 51.73207 13.71739 14529 ft 374 kts 10°
2026-05-04 14:53 51.75734 13.72675 14063 ft 372 kts 10°
2026-05-04 14:53 51.78250 13.73601 13572 ft 370 kts 10°
2026-05-04 14:53 51.80752 13.74523 13069 ft 367 kts 10°
2026-05-04 14:54 51.83226 13.75437 12579 ft 364 kts 10°
2026-05-04 14:54 51.85684 13.76345 12094 ft 361 kts 10°
2026-05-04 14:54 51.88095 13.77234 11614 ft 358 kts 10°
2026-05-04 14:54 51.90512 13.78125 11129 ft 355 kts 10°
2026-05-04 14:55 51.92917 13.78902 10640 ft 350 kts
2026-05-04 14:55 51.95355 13.79302 10212 ft 345 kts
2026-05-04 14:55 51.97692 13.79685 9861 ft 338 kts
2026-05-04 14:55 51.99946 13.80081 9717 ft 313 kts
2026-05-04 14:56 52.02051 13.80470 9314 ft 297 kts
2026-05-04 14:56 52.04083 13.80847 8811 ft 293 kts
2026-05-04 14:56 52.06094 13.81210 8482 ft 289 kts
2026-05-04 14:56 52.08086 13.81566 8100 ft 287 kts
2026-05-04 14:57 52.10063 13.81910 7713 ft 285 kts
2026-05-04 14:57 52.12002 13.82244 7463 ft 271 kts
2026-05-04 14:57 52.13801 13.82557 7340 ft 249 kts
2026-05-04 14:57 52.15459 13.82856 7214 ft 231 kts
2026-05-04 14:58 52.16997 13.83141 7086 ft 214 kts
2026-05-04 14:58 52.18440 13.83414 6839 ft 206 kts
2026-05-04 14:58 52.19853 13.83680 6493 ft 204 kts
2026-05-04 14:58 52.21256 13.83948 6115 ft 203 kts
2026-05-04 14:59 52.22658 13.84218 5734 ft 202 kts
2026-05-04 14:59 52.24047 13.84480 5410 ft 201 kts
2026-05-04 14:59 52.26801 13.84980 4819 ft 198 kts
2026-05-04 15:00 52.28164 13.85227 4496 ft 197 kts
2026-05-04 15:00 52.29531 13.85482 4204 ft 197 kts
2026-05-04 15:00 52.30885 13.85725 3936 ft 196 kts
2026-05-04 15:01 52.33578 13.86209 3435 ft 194 kts
2026-05-04 15:01 52.34916 13.86434 3192 ft 192 kts 356°
2026-05-04 15:01 52.36215 13.86130 3035 ft 188 kts 343°
2026-05-04 15:01 52.37478 13.85566 2998 ft 189 kts 340°
2026-05-04 15:02 52.38743 13.84956 3000 ft 190 kts 340°
2026-05-04 15:02 52.40005 13.84340 2999 ft 190 kts 340°
2026-05-04 15:02 52.41123 13.83312 3000 ft 184 kts 309°
2026-05-04 15:02 52.41797 13.81552 3001 ft 183 kts 289°
2026-05-04 15:03 52.42022 13.79526 3003 ft 181 kts 267°
2026-05-04 15:03 52.41767 13.77512 3004 ft 181 kts 249°
2026-05-04 15:03 52.41315 13.75592 2994 ft 181 kts 250°
2026-05-04 15:03 52.40861 13.73651 2859 ft 183 kts 249°
2026-05-04 15:04 52.40409 13.71723 2686 ft 180 kts 249°
2026-05-04 15:04 52.39958 13.69798 2422 ft 180 kts 250°
2026-05-04 15:04 52.39507 13.67878 2177 ft 181 kts 250°
2026-05-04 15:04 52.39069 13.66016 1950 ft 172 kts 250°
2026-05-04 15:05 52.38651 13.64236 1724 ft 160 kts 249°
2026-05-04 15:05 52.38264 13.62594 1506 ft 150 kts 250°
2026-05-04 15:05 52.37902 13.61054 1335 ft 140 kts 248°
2026-05-04 15:05 52.37564 13.59620 1162 ft 131 kts 252°
2026-05-04 15:06 52.37239 13.58233 996 ft 132 kts 250°
2026-05-04 15:06 52.36912 13.56844 750 ft 130 kts 253°
2026-05-04 15:06 52.36586 13.55467 586 ft 129 kts 252°
2026-05-04 15:07 52.35925 13.52688 261 ft 131 kts 252°
2026-05-04 15:07 52.35607 13.51335 158 ft 118 kts 252°
2026-05-04 15:07 52.35362 13.50283 154 ft 75 kts 248°
2026-05-04 15:07 52.35239 13.49749 154 ft 31 kts 256°
2026-05-04 15:08 52.35239 13.49413 154 ft 27 kts 278°
2026-05-04 15:08 52.35265 13.49268 154 ft 12 kts 313°
2026-05-04 15:08 52.35347 13.49252 154 ft 13 kts 37°
2026-05-04 15:08 52.35382 13.49380 154 ft 12 kts 70°
2026-05-04 15:09 52.35409 13.49503 154 ft 11 kts 69°
2026-05-04 15:09 52.35454 13.49665 154 ft 23 kts 69°
2026-05-04 15:09 52.35510 13.49927 154 ft 25 kts 68°
2026-05-04 15:10 52.35650 13.50511 155 ft 30 kts 68°
2026-05-04 15:10 52.35695 13.50703 155 ft 13 kts 69°
2026-05-04 15:10 52.35813 13.50799 155 ft 12 kts 340°
2026-05-04 15:11 52.35889 13.50769 155 ft 10 kts 15°
2026-05-04 15:11 52.35935 13.50900 155 ft 16 kts 69°
2026-05-04 15:11 52.35975 13.51068 155 ft 15 kts 68°
2026-05-04 15:11 52.36012 13.51222 155 ft 14 kts 68°
2026-05-04 15:12 52.36043 13.51275 155 ft 5 kts 357°
2026-05-04 15:12 52.36075 13.51259 155 ft 4 kts 339°
2026-05-04 15:12 52.36105 13.51241 155 ft 2 kts 339°
2026-05-04 15:12 52.36109 13.51238 155 ft 0 kts 339°